Skip Page Navigation
NASA JPL Caltech
NASA Logo - Jet Propulsion Laboratory + View the NASA Portal
+ Near-Earth Object (NEO) Program
Search JPL
JPL Home Earth Solar System Stars & Galaxies Technology
JPL Solar System Dynamics
BODIES ORBITS EPHEMERIDES TOOLS PHYSICAL DATA DISCOVERY FAQ SITE MAP
JPL Small-Body Database Browser
Search: [ help ]  
332905 (2011 BQ63 = 2011 FS)
Classification: Main-belt Asteroid          SPK-ID: 2332905
Ephemeris | Orbit Diagram | Orbital Elements | Physical Parameters | Discovery Circumstances ]

[ hide orbit diagram ]
Orbit Diagram
Note: Make sure you have Java enabled on your browser to see the applet. This applet is provided as a 3D orbit visualization tool. The applet was implemented using 2-body methods, and hence should not be used for determining accurate long-term trajectories (over several years or decades) or planetary encounter circumstances. For accurate long-term ephemerides, please instead use our Horizons system.
Orbit Viewer

Additional Notes: the orbits shown in the applet are color coded. The planets are white lines, and the asteroid/comet is a blue line. The bright white line indicates the portion of the orbit that is above the ecliptic plane, and the darker portion is below the ecliptic plane. Likewise for the asteroid/comet orbit, the light blue indicates the portion above the ecliptic plane, and the dark blue the portion below the ecliptic plane.

Orbit Viewer applet originally written and kindly provided by Osamu Ajiki (AstroArts), and further modified by Ron Baalke (JPL).


Orbital Elements at Epoch 2456400.5 (2013-Apr-18.0) TDB
Reference: MPO233020 (heliocentric ecliptic J2000)
 Element Value Uncertainty (1-sigma)   Units 
e 0.0208609 n/a  
a 2.5794851 n/a AU
q 2.5256747 n/a AU
i 15.45234 n/a deg
node 131.22787 n/a deg
peri 310.17134 n/a deg
M 254.37063 n/a deg
tp 2456844.4971194
(2014-Jul-05.99711940)
n/a JED
period 1513.2056829
4.14
n/a
n/a
d
yr
n 0.23790553 n/a deg/d
Q 2.6332955 n/a AU
  Orbit Determination Parameters
   # obs. used (total)      65  
   first obs. used      2001-??-??  
   last obs. used      2012-06-18  
   # oppositions      5  
   planetary ephem.      DE403  
   condition code      1  
   fit RMS      0.54  
   data source      MPC:mpu  
   producer      MPCADO  

Additional Information
 T_jup = 3.374 

Ephemeris | Orbit Diagram | Orbital Elements | Physical Parameters | Discovery Circumstances ]

Physical Parameter Table
Parameter Symbol Value Units Sigma Reference Notes
absolute magnitude H 16.5 mag n/a MPO233020  

332905 (2011 BQ63)          Discovered 2010-Dec-14 by Mt. Lemmon Survey at Mount Lemmon (691)
Reference: 20120703/Numbers.arcLast Updated: 2012-07-09

Alternate Designations
 2011 BQ63 = 2011 FS 
Ephemeris | Orbit Diagram | Orbital Elements | Physical Parameters | Discovery Circumstances ]
ABOUT SSD CREDITS/AWARDS PRIVACY/COPYRIGHT GLOSSARY LINKS
FirstGov 2013-May-19 16:34 UT
(server date/time)  
NASA Home Page
Site Manager:   Donald K. Yeomans
Webmaster  Alan B. Chamberlin